Simultaneous Nadir Overpasses (SNOs) Predictions

Prediction of SNOs between GOES-16 and METOP-C Satellite Orbit:

Table of predicted SNOs for the next 14.0 days since TLE Epoch: 9/18/2023
Index Date Time (GOES-16) GOES-16 Lat,Lon METOP-C Lat,Lon Distance(km) Time Diff (sec)
1 09/18/2023 02:31:33 0.05, -75.21 0.06, -75.26 4.79 80
2 09/20/2023 14:29:41 -0.05, -75.24 -0.15, -74.81 49.21 80
3 09/22/2023 02:45:59 0.05, -75.24 -0.89, -79.40 474.74 80
4 09/23/2023 02:27:58 0.04, -75.24 0.26, -74.41 95.58 80
5 09/24/2023 14:44:07 -0.04, -75.27 0.77, -78.96 420.69 80
6 09/25/2023 14:26:05 -0.04, -75.27 -0.32, -73.95 149.95 80
7 09/27/2023 02:45:04 0.04, -75.28 -0.71, -78.55 373.10 80
8 09/28/2023 02:21:43 0.04, -75.29 0.44, -73.55 198.05 80
9 09/29/2023 14:43:11 -0.04, -75.33 0.57, -78.11 316.56 80
10 09/30/2023 14:22:30 -0.04, -75.34 -0.53, -73.10 255.07 80
